Location: Bakov nad Jizerou
(50.4784°N, 14.9394°E)
Time: 23:34:58
(UTC+00:00)

ERS-2 - Pass Details

Date: 16 June 2021
Orbit: 492 x 495 km, 98.5° (Epoch: 23 July)

Event Time Altitude Azimuth Distance (km) Brightness Sun altitude
Rises 19:50:43 0° 6° (N) 2,594 6.4 -5.0°
Reaches altitude 10° 19:52:57 10° 356° (N) 1,706 5.7 -5.3°
Maximum altitude 19:56:11 30° 294° (WNW) 919 4.3 -5.6°
Drops below altitude 10° 19:59:23 10° 233° (SW) 1,695 4.9 -6.0°
Sets 20:01:37 0° 222° (SW) 2,574 5.7 -6.2°
